Погода в Макушино

Россия / Курганская область     55°12′18″N   67°14′54″E
темп.,
°C
ветер,
м/с
пор.,
м/с
влажн.,
%
обл.,
%
осадки,
мм/ч
давл.,
гПа
погр.,
м
26 июля, пн
пн2623:00+13ссз411770 0.0 1013254
02:00+11сз411700 0.0 1014238
05:00+9сз410670 0.0 1016192
08:00+15сз57480 0.0 1016515
11:00+18сз79414 0.0 10161901
14:00+20сз783795 0.0 10162405
17:00+18ссз4644100 0.0 10151707
20:00+15сз475640 0.0 1016250
27 июля, вт
вт2723:00+14з3661100 0.0 1016151
02:00+13з3557100 0.0 1015136
05:00+13зюз3655100 0.0 1015154
08:00+16з465283 0.0 1015345
11:00+20з67435 0.0 10131821
14:00+20з5638100 0.0 10122401
17:00+20з674399 0.0 10111424
20:00+17зюз396065 0.1 1010383
28 июля, ср
ср2823:00+13юз49815 0.1 1010159
02:00+12юз4108656 0.1 1009208
05:00+13юз4991100 0.6 1008280
08:00+15з688689 0.4 1008695
11:00+18сз78507 0.4 10081397
14:00+16зсз684690 0.0 10091682
17:00+17зсз8940100 0.0 10091946
20:00+15зсз595164 0.0 1010480
29 июля, чт
чт2923:00+10сз227313 0.0 101221
02:00+8з338196 0.0 101225
05:00+8зюз348850 0.0 101257
08:00+14з57545 0.0 1012545
11:00+18з57395 0.0 10111291
14:00+21з71038100 0.0 10102476
17:00+20зюз7114498 0.0 10091022
20:00+20зюз6124594 0.0 1008822
30 июля, пт
пт3023:00+15зюз3884100 0.7 1008142
02:00+12юз4878100 0.2 1007130
05:00+14юз51369100 0.2 1006295
08:00+16юз51383100 0.1 1006525
11:00+15юз71393100 1.9 1007995
14:00+16юз71087100 0.1 1007770
17:00+20зюз456599 0.1 10061047
20:00+18ююз2376100 0.0 100635